DECAYED
Showing default

SJ-19, 61444 (Decayed)

Orbit data source: Space-Track

SJ-19, 61444 was a payload satellite owned by CASC (CN) in LEO that was launched on Fri, 27 Sep 2024 UTC via a CHANG ZHENG 2D launch vehicle from the Jiuquan Satellite Launch Center, China (JSC). Payload-class satellites include a variety of spacecraft equipped with specific instruments for various scientific and technological missions. These include communications satellites like Starlink; space stations such as the ISS; scientific satellites like the Hubble; Earth observation satellites from companies like Planet Labs, Umbra, and HawkEye 360; GPS; miniature CubeSats for education and research; and military/defense satellites.

Loading next visibility...
Identifier
61444, 2024-177A
Orbit
Decayed
Last TLE update
9 months ago
Origin
Manufacturer
CAST
Mission
Decayed Civil Reentry Vehicle
Bus & Motor
FSW-1, Unknown motor
Mass
~0 kg wet, ~1,200 kg dry
Launch date (UTC)
2024-09-27 (9 months ago)
Launch vehicle
CHANG ZHENG 2D
Launch site
Jiuquan Satellite Launch Center, China (JSC)
Object type
Payload
Rocket body
Debris
Shape & HBR
Rounded Cone, 1.7 m
Radar Cross Section
1.836 m², Large (>1 m²)

Expand to show TLE details & history

TLE from 9 months ago
0 SJ-19
1 61444U 24177A   24284.70845001  .00015258  00000-0  90833-4 0  9993
2 61444  41.6010  76.8644 0006944  34.8351 325.2950 15.77608314  2241
Epoch: 2024-10-10T17:00Z
TLE epoch observation values (Epoch: 2024-10-10T17:00:10.08Z)
Latitude
-0.00001°
Longitude
162.03327°
Altitude
332.999 km
Speed
7.713 km/s
True Right ascension
05h 07m 27s
True Declination
0° 00' 00"
Sunlit
Object was in full shadow at epoch
Visualization orbit readout
Visualization observer readout
Orbital elements
Apogee altitude
344.11 km
Perigee altitude
334.781 km
Semi-major axis
6,717.583 km
Eccentricity
0.00069
Inclination
41.601°
RAAN
76.8644°
Arg. of periapsis
34.8351°
True anomaly
Unknown
Mean anomaly
325.295°
Eccentric anomaly
Unknown
Mean motion
3.94206 °/min
Orbital period
91.32 mins
BSTAR
0.000090833
Loading maneuver chart data...
Loading SW <> Apogee altitude chart data...
Loading historical data...
Loading historical data...
Loading historical data...
Loading historical data...
Loading historical data...
Loading historical data...
Loading historical data...
Other satellites on launch #177 in the year 2024 (2024-09-27 UTC)

SJ-19 Visibility forecast

Observer location: undefined°, undefined°

Span
Click to sort rows by Start time (UTC) header in descending order
Start Az.
Max El. time (UTC)
Max El. Az.
Max El.
End time (UTC)
End Az.
4 mins2025-07-08 07:53:40.749Z276.499° WNW2025-07-08 07:55:40.749Z231.005° WSW35.765°2025-07-08 07:57:40.749Z129.155° SE
|